Location: Home
(42.5358°N, 72.7383°W)
Time: 04:46:20
(UTC-05:00)

A-11 Canister half - Pass Details

Date: 01 December 2021
Orbit: 1524 x 1684 km, 47.3° (Epoch: 17 January)

Event Time Altitude Azimuth Distance (km) Brightness Sun altitude
Exits shadow 03:19:52 73° 42° (NE) 1,726 9.1 -40.1°
Drops below altitude 10° 03:28:47 10° 69° (ENE) 3,872 11.8 -38.5°
Sets 03:31:52 0° 70° (ENE) 4,839 12.5 -37.9°
